Zurück zum Katalog

COSMOS 249 DEB

AktivLEO
NORAD 3793·DEBRIS·🇷🇺 Russia

Gestartet Oct 20, 1968 von Baikonur Cosmodrome

Loading…

Nächste Überflüge (nächste 24 Stunden)

TLE

AktuellSource: Space-Track

Epoche: Sep 12, 2026, 17:48 UTC

1 03793U 68091BA  26255.74204287  .00000474  00000-0  50877-3 0  9995
2 03793  62.2189  24.4287 0609872 355.4717   4.0915 13.21794699712957

Verfolge COSMOS 249 DEB in Echtzeit mit AllMySat

Download on the App Store